Weather reports worldwide

Advertisment
Winston Salem, nc, United States of America (2072822): temperature & dewpoint: 13.11.2019 13:00:00 - 19.11.2019 13:00:00 (EST)Winston Salem, nc, United States of America (2072822): wind speed & gusts: 13.11.2019 13:00:00 - 19.11.2019 13:00:00 (EST)Winston Salem, nc, United States of America (2072822): wind direction: 13.11.2019 13:00:00 - 19.11.2019 13:00:00 (EST)Winston Salem, nc, United States of America (2072822): reduced air pressure: 13.11.2019 13:00:00 - 19.11.2019 13:00:00 (EST)Winston Salem, nc, United States of America (2072822): visibility: 13.11.2019 13:00:00 - 19.11.2019 13:00:00 (EST)Winston Salem, nc, United States of America (2072822): precipitation: 13.11.2019 13:00:00 - 19.11.2019 13:00:00 (EST)
Date & Time tt [°C] td [°C] ff [km/h] ff [kn] fx [km/h] fx [kn] dd ppp [hPa] vv [km] rr [mm]
19.11.2019 13:00:00 - - - - - - - - - -
19.11.2019 12:00:00 10,6 5,6 5 3 - - N 1010,4 16 -
19.11.2019 11:00:00 8,3 5,6 0 0 - - N 1011,2 8 -
19.11.2019 10:00:00 7,8 5,6 0 0 - - N 1011,2 4,8 -
19.11.2019 09:00:00 6,7 6,1 0 0 - - N 1011,2 4,8 -
19.11.2019 08:00:00 6,1 5,6 0 0 - - N 1010,9 3,2 -
19.11.2019 07:00:00 5,6 5,0 0 0 - - N 1010,7 2,0 -
19.11.2019 06:00:00 5,0 5,0 0 0 - - N 1010,4 2,0 -
19.11.2019 05:00:00 3,9 3,9 5 3 - - S 1009,8 6 -
19.11.2019 04:00:00 3,9 3,9 0 0 - - N 1008,5 0,4 0,0
19.11.2019 03:00:00 3,9 3,9 0 0 - - N 1009,0 1,2 0,0
19.11.2019 02:00:00 3,9 3,3 0 0 - - N 1009,2 0,4 -
19.11.2019 01:00:00 3,9 3,9 5 3 - - NNE 1009,1 0,4 -
19.11.2019 00:00:00 5,0 5,0 0 0 - - N 1009,4 0,4 -
18.11.2019 23:00:00 6,7 6,1 5 3 - - SE 1009,5 11 -
18.11.2019 22:00:00 7,2 6,1 0 0 - - N 1009,3 15 -
18.11.2019 21:00:00 6,7 6,1 5 3 - - W 1009,4 16 -
18.11.2019 20:00:00 6,7 6,1 8 4 - - WSW 1009,4 16 -
18.11.2019 19:00:00 6,7 6,1 8 4 - - W 1009,0 16 -
18.11.2019 18:00:00 6,7 5,6 8 4 - - - 1008,1 16 -
18.11.2019 17:00:00 7,2 6,1 5 3 - - W 1007,7 16 -
18.11.2019 16:00:00 7,2 6,1 5 3 - - S 1007,9 16 -
18.11.2019 15:00:00 6,7 5,6 0 0 - - N 1008,1 16 0,0
18.11.2019 14:00:00 6,7 5,6 0 0 - - N 1008,5 6 0,8
18.11.2019 13:00:00 6,1 5,6 5 3 - - N 1009,1 6 1,0
18.11.2019 12:00:00 6,1 5,0 0 0 - - N 1010,4 4,8 1,8
18.11.2019 11:00:00 5,6 4,4 0 0 - - N 1011,1 6 0,3
18.11.2019 10:00:00 5,6 3,9 8 4 - - ENE 1011,5 16 -
18.11.2019 09:00:00 5,6 3,9 11 6 - - NNE 1011,5 16 -
18.11.2019 08:00:00 5,0 3,9 13 7 - - NNE 1011,9 16 -
18.11.2019 07:00:00 5,0 3,9 13 7 - - NE 1011,6 15 -
18.11.2019 06:00:00 5,0 4,4 9 5 - - N 1011,7 16 -
18.11.2019 05:00:00 5,0 3,9 15 8 - - NE 1011,2 16 -
18.11.2019 04:00:00 5,0 4,4 9 5 - - NNE 1011,1 16 -
18.11.2019 03:00:00 5,6 4,4 16 9 - - NNE 1011,8 16 -
18.11.2019 02:00:00 5,6 4,4 13 7 - - NNE 1012,3 16 -
18.11.2019 01:00:00 6,1 3,9 13 7 - - N 1013,2 16 -
18.11.2019 00:00:00 6,1 3,9 15 8 - - NNE 1013,9 16 -
17.11.2019 23:00:00 6,7 3,9 13 7 - - NNE 1014,4 16 -
17.11.2019 22:00:00 6,7 3,3 9 5 - - NNE 1015,1 16 -
17.11.2019 21:00:00 6,7 3,3 15 8 - - NE 1015,4 16 -
17.11.2019 20:00:00 7,2 3,3 13 7 - - NNE 1015,6 16 -
17.11.2019 19:00:00 7,2 3,3 15 8 - - NE 1015,8 16 -
17.11.2019 18:00:00 7,2 3,9 13 7 - - NE 1015,9 16 -
17.11.2019 17:00:00 7,8 3,3 11 6 - - - 1015,6 16 -
17.11.2019 16:00:00 10,0 3,3 16 9 - - NNE 1015,9 16 -
17.11.2019 15:00:00 10,6 2,8 18 10 - - NNE 1016,2 16 -
17.11.2019 14:00:00 10,6 2,8 16 9 - - NNE 1016,6 16 -
17.11.2019 13:00:00 10,0 2,2 15 8 - - NE 1017,7 16 -
17.11.2019 12:00:00 8,9 1,7 18 10 - - NNE 1019,2 16 -
17.11.2019 11:00:00 7,2 1,1 18 10 - - NE 1020,7 16 -
17.11.2019 10:00:00 6,7 0,0 16 9 - - NE 1020,5 16 -
17.11.2019 09:00:00 5,0 -0,6 21 11 - - NE 1021,1 16 -
17.11.2019 08:00:00 3,9 -1,1 16 9 - - NNE 1021,1 16 -
17.11.2019 07:00:00 3,3 -1,7 16 9 - - NNE 1020,7 16 -
17.11.2019 06:00:00 3,9 -1,7 21 11 - - NNE 1020,6 16 -
17.11.2019 05:00:00 3,9 -2,2 15 8 - - NNE 1020,9 16 -
17.11.2019 04:00:00 3,3 -2,8 24 13 - - NNE 1021,0 16 -
17.11.2019 03:00:00 3,9 -2,8 16 9 - - NNE 1021,0 16 -
17.11.2019 02:00:00 3,9 -3,3 21 11 - - NNE 1021,0 16 -
17.11.2019 01:00:00 3,9 -3,3 28 15 - - NNE 1021,6 16 -
17.11.2019 00:00:00 4,4 -3,3 22 12 - - NE 1022,3 16 -
16.11.2019 23:00:00 4,4 -3,9 18 10 - - NNE 1022,1 16 -
16.11.2019 22:00:00 4,4 -3,9 35 19 50 27 NE 1022,5 16 -
16.11.2019 21:00:00 5,0 -3,3 22 12 54 29 NE 1022,7 16 -
16.11.2019 20:00:00 5,6 -2,8 31 17 50 27 ENE 1022,4 16 -
16.11.2019 19:00:00 6,7 -2,8 28 15 - - NNE 1021,9 16 -
16.11.2019 18:00:00 7,2 -3,3 24 13 - - NE 1021,5 16 -
16.11.2019 17:00:00 8,3 -3,3 28 15 - - NE 1021,0 16 -
16.11.2019 16:00:00 8,9 -3,3 24 13 - - NE 1020,9 16 -
16.11.2019 15:00:00 10,0 -3,3 24 13 - - NNE 1019,9 16 -
16.11.2019 14:00:00 9,4 -3,3 34 18 48 26 NE 1020,1 16 -
16.11.2019 13:00:00 8,3 -2,8 26 14 - - ENE 1021,1 16 -
16.11.2019 12:00:00 7,8 -2,2 28 15 50 27 NNE 1021,9 16 -
16.11.2019 11:00:00 6,7 -2,8 26 14 54 29 NE 1022,7 16 -
16.11.2019 10:00:00 5,6 -2,8 24 13 63 34 NE 1022,8 16 -
16.11.2019 09:00:00 4,4 -3,3 35 19 57 31 NE 1021,7 16 -
16.11.2019 08:00:00 4,4 -3,9 29 16 - - NE 1021,4 16 -
16.11.2019 07:00:00 4,4 -4,4 26 14 - - NE 1021,1 16 -
16.11.2019 06:00:00 5,0 -4,4 26 14 - - NE 1020,4 16 -
16.11.2019 05:00:00 5,0 -3,9 21 11 - - NNE 1020,0 16 -
16.11.2019 04:00:00 5,0 -4,4 18 10 - - NE 1019,6 16 -
16.11.2019 03:00:00 5,6 -5,0 15 8 - - NNE 1019,4 16 -
16.11.2019 02:00:00 6,7 -5,6 18 10 - - NNE 1019,5 16 -
16.11.2019 01:00:00 6,7 -6,1 15 8 - - NNE 1019,7 16 -
16.11.2019 00:00:00 6,7 -6,7 15 8 - - NNE 1020,0 16 -
15.11.2019 23:00:00 7,2 -5,6 9 5 - - NE 1020,7 16 -
15.11.2019 22:00:00 7,2 -5,0 13 7 - - NNE 1020,8 16 -
15.11.2019 21:00:00 8,3 -5,6 15 8 - - NNE 1021,0 16 -
15.11.2019 20:00:00 8,3 -6,1 13 7 - - NE 1021,3 16 -
15.11.2019 19:00:00 8,3 -5,0 16 9 - - NE 1021,0 16 -
15.11.2019 18:00:00 8,9 -5,0 11 6 - - NE 1020,7 16 -
15.11.2019 17:00:00 9,4 -5,6 11 6 - - NNE 1020,4 16 -
15.11.2019 16:00:00 10,6 -5,6 21 11 - - NNE 1020,3 16 -
15.11.2019 15:00:00 10,6 -5,0 15 8 - - NNE 1020,6 16 -
15.11.2019 14:00:00 10,0 -5,0 11 6 - - NNE 1020,9 16 -
15.11.2019 13:00:00 10,0 -5,0 13 7 - - NNE 1021,9 16 -
15.11.2019 12:00:00 8,9 -4,4 11 6 - - NNE 1023,4 16 -
15.11.2019 11:00:00 8,3 -5,6 16 9 - - NE 1024,0 16 -
15.11.2019 10:00:00 7,8 -5,6 16 9 - - NE 1024,0 16 -
15.11.2019 09:00:00 6,1 -4,4 15 8 - - NE 1024,4 16 -
15.11.2019 08:00:00 4,4 -3,3 8 4 - - NE 1024,1 16 -
15.11.2019 07:00:00 3,3 -3,3 5 3 - - NE 1024,0 16 -
15.11.2019 06:00:00 3,9 -3,3 13 7 - - NNE 1023,2 16 -
15.11.2019 05:00:00 3,3 -2,2 0 0 - - N 1023,6 16 -
15.11.2019 04:00:00 2,8 -2,2 0 0 - - N 1024,0 16 -
15.11.2019 03:00:00 2,8 -2,8 8 4 - - N 1024,3 16 -
15.11.2019 02:00:00 3,3 -2,2 9 5 - - N 1025,2 16 -
15.11.2019 01:00:00 3,3 -2,8 0 0 - - N 1026,4 16 -
15.11.2019 00:00:00 3,3 -2,2 9 5 - - N 1025,5 16 -
14.11.2019 23:00:00 3,9 -2,8 8 4 - - NNW 1026,5 16 -
14.11.2019 22:00:00 3,9 -2,2 0 0 - - N 1026,6 16 -
14.11.2019 21:00:00 3,3 -2,8 0 0 - - N 1027,0 16 -
14.11.2019 20:00:00 3,9 -3,3 0 0 - - N 1026,8 16 -
14.11.2019 19:00:00 3,3 -3,3 5 3 - - ESE 1026,5 16 -
14.11.2019 18:00:00 3,3 -3,9 5 3 - - E 1026,4 16 -
14.11.2019 17:00:00 3,9 -5,0 0 0 - - N 1026,7 16 -
14.11.2019 16:00:00 3,3 -5,6 0 0 - - N 1026,8 16 -
14.11.2019 15:00:00 3,3 -6,1 0 0 - - N 1026,8 16 -
14.11.2019 14:00:00 3,3 -6,7 0 0 - - N 1027,3 16 -
14.11.2019 13:00:00 2,8 -6,7 0 0 - - N 1027,9 16 -
14.11.2019 12:00:00 2,2 -7,2 5 3 - - NW 1028,9 16 -
14.11.2019 11:00:00 0,6 -7,2 0 0 - - N 1029,9 16 -
14.11.2019 10:00:00 -0,6 -5,0 9 5 - - SE 1030,4 16 -
14.11.2019 09:00:00 -1,1 -6,7 0 0 - - N 1030,5 16 -
14.11.2019 08:00:00 -2,8 -6,1 0 0 - - N 1029,9 16 -
14.11.2019 07:00:00 -5,0 -7,8 5 3 - - SE 1029,3 16 -
14.11.2019 06:00:00 -3,3 -6,7 0 0 - - N 1029,0 16 -
14.11.2019 05:00:00 -3,9 -7,2 0 0 - - N 1029,1 16 -
14.11.2019 04:00:00 -3,3 -7,8 0 0 - - N 1029,5 16 -
14.11.2019 03:00:00 -3,9 -7,8 0 0 - - N 1029,6 16 -
14.11.2019 02:00:00 -4,4 -8,9 0 0 - - N 1029,8 16 -
14.11.2019 01:00:00 -4,4 -8,9 0 0 - - N 1030,1 16 -
14.11.2019 00:00:00 -2,8 -8,9 0 0 - - N 1029,4 16 -
13.11.2019 23:00:00 -3,3 -8,9 0 0 - - N 1029,9 16 -
13.11.2019 22:00:00 -3,3 -7,8 0 0 - - N 1030,2 16 -
13.11.2019 21:00:00 -2,8 -8,3 0 0 - - N 1030,5 16 -
13.11.2019 20:00:00 -1,7 -8,9 0 0 - - N 1030,3 16 -
13.11.2019 19:00:00 0,0 -10,0 0 0 - - N 1029,9 16 -
13.11.2019 18:00:00 0,0 -11,1 0 0 - - N 1028,6 16 -
13.11.2019 17:00:00 2,2 -12,2 5 3 - - NE 1028,1 16 -
13.11.2019 16:00:00 2,8 -12,2 0 0 - - N 1028,5 16 -
13.11.2019 15:00:00 2,8 -11,7 0 0 - - N 1028,5 16 -
13.11.2019 14:00:00 2,8 -12,2 11 6 - - E 1029,3 16 -
13.11.2019 13:00:00 1,7 -12,2 13 7 - - ENE 1029,7 16 -

tt = temperature
td = dewpoint
ff = wind speed
fx = gusts
dd = wind direction
ppp = reduced air pressure
vv = visibility
rr = precipitation

Next stations